Probability
0 0 0 0 0 0 0 0 0 0 0 0 0 0 0 0 0 0 0 0 0 0 0 0 0 0 0 0 0 0 0 0 0 0 0 0 0 0 0 0 0 0 0 0
0 0 0 0 0 0 0 0 0 0 0 0 0 0 0 0 0 0 0 0 0 0 0 0 0 0 0 0 0 0 0 0 0 0 0 0 0 0 0 0 0 0 0 0
0 0 0 0 0 0 0 0 0 0 0 0 0 0 0 0 0 0 0 0 0 0 0 0 0 0 0 0 0 0 0 0 0 0 0 0 0 0 0 0 0 0 0 0
0 0 0 0 0 0 0 0 0 0 0 0 0 0 0 0 0 0 0 0 0 0 0 0 0 0 0 0 0 0 0 0 0 0 0 0 0 0 0 0 0 0 0 0
0 0 0 0 0 0 0 0 0 0 0 0 0 0 0 0 0 0 0 0 0 0 0 0 0 0 0 0 0 0 0 0 0 0 0 0 0 0 0 0 0 0 0 0
0 0 0 0 0 0 0 0 0 0 0 0 0 0 0 0 0 0 0 0 0 0 0 0 0 0 0 0 0 0 0 0 0 0 0 0 0 0 0 0 0 0 0 0
0 0 0 0 0 0 0 0 0 0 0 0 0 0 0 0 0 0 0 0 0 0 0 0 0 0 0 0 0 0 0 0 0 0 0 0 0 0 0 0 0 0 0 0
0 0 0 0 0 0 0 0 0 0 0 0 0 0 0 0 0 0 0 0 0 0 0 0 0 0 0 0 0 0 0 0 0 0 0 0 0 0 0 0 0 0 0 0
0 0 0 0 0 0 0 0 0 0 0 0 0 0 0 0 0 0 0 0 0 0 0 0 0 0 0 0 0 0 0 0 0 0 0 0 0 0 0 0 0 0 0 0
0 0 0 0 0 0 0 0 0 0 0 0 0 0 0 0 0 0 0 0 0 0 0 0 0 0 0 0 0 0 0 0 0 0 0 0 0 0 0 0 0 0 0 0
0 0 0 0 0 0 0 0 0 0 0 0 0 0 0 0 0 0 0 0 0 0 0 0 0 0 0 0 0 0 0 0 0 0 0 0 0 0 0 0 0 0 0 0
0 0 0 0 0 0 0 0 0 0 0 0 0 0 0 0 0 0 0 0 0 0 0 0 0 0 0 0 0 0 0 0 0 0 0 0 0 0 0 0 0 0 0 0
0 0 0 0 0 0 0 0 0 0 0 0 0 0 0 0 0 0 0 0 0 0 0 0 0 0 0 0 0 0 0 0 0 0 0 0 0 0 0 0 0 0 0 0
0 0 0 0 0 0 0 0 0 0 0 0 0 0 0 0 0 0 0 0 0 0 0 0 0 0 0 0 0 0 0 0 0 0 0 0 0 0 0 0 0 0 0 0
0 0 0 0 0 0 0 0 0 0 0 0 0 0 0 0 0 0 0 0 0 0 0 0 0 0 0 0 0 0 0 0 0 0 0 0 0 0 0 0 0 0 0 0
0 0 0 0 0 0 0 0 0 0 0 0 0 0 0 0 0 0 0 0 0 0 0 0 0 0 0 0 0 0 0 0 0 0 0 0 0 0 0 0 0 0 0 0
0 0 0 0 0 0 0 0 0 0 0 0 0 0 0 0 0 0 0 0 0 0 0 0 0 0 0 0 0 0 0 0 0 0 0 0 0 0 0 0 0 0 0 0
0 0 0 0 0 0 0 0 0 0 0 0 0 0 0 0 0 0 0 0 0 0 0 0 0 0 0 0 0 0 0 0 0 0 0 0 0 0 0 0 0 0 0 0
0 0 0 0 0 0 0 0 0 0 0 0 0 0 0 0 0 0 0 0 0 0 0 0 0 0 0 0 0 0 0 0 0 0 0 0 0 0 0 0 0 0 0 0
0 0 0 0 0 0 0 0 0 0 0 0 0 0 0 0 0 0 0 0 0 0 0 0 0 0 0 0 0 0 0 0 0 0 0 0 0 0 0 0 0 0 0 0
0 0 0 0 0 0 0 0 0 0 0 0 0 0 0 0 0 0 0 0 0 0 0 0 0 0 0 0 0 0 0 0 0 0 0 0 0 0 0 0 0 0 0 0
0 0 0 0 0 0 0 0 0 0 0 0 0 0 0 0 0 0 0 0 0 0 0 0 0 0 0 0 0 0 0 0 0 0 0 0 0 0 0 0 0 0 0 0
0 0 0 0 0 0 0 0 0 0 0 0 0 0 0 0 0 0 0 0 0 0 0 0 0 0 0 0 0 0 0 0 0 0 0 0 0 0 0 0 0 0 0 0
0 0 0 0 0 0 0 0 0 0 0 0 0 0 0 0 0 0 0 0 0 0 0 0 0 0 0 0 0 0 0 0 0 0 0 0 0 0 0 0 0 0 0 0
0 0 0 0 0 0 0 0 0 0 0 0 0 0 0 0 0 0 0 0 0 0 0 0 0 0 0 0 0 0 0 0 0 0 0 0 0 0 0 0 0 0 0 0
0 0 0 0 0 0 0 0 0 0 0 0 0 0 0 0 0 0 0 0 0 0 0 0 0 0 0 0 0 0 0 0 0 0 0 0 0 0 0 0 0 0 0 0
Wind_Speed
5 4 7 10 12 10 8 9 10 10 9 7 7 8 8 11 14 10 3 6 13 14 13 14 14 12 12 12 13 14 14 11 6 3 3 2 1 1 1 1 2 3 5 6
4 10 12 9 7 5 6 8 10 10 6 3 6 9 10 13 10 5 4 11 13 12 13 14 13 12 12 13 13 14 15 14 11 6 4 3 3 2 2 2 2 1 2 4
9 4 1 4 6 8 9 9 9 9 7 5 9 9 9 7 3 6 14 14 13 13 12 11 11 12 12 13 13 13 14 14 13 11 6 5 4 4 4 4 2 1 1 1
9 4 1 3 7 7 8 4 4 4 3 4 4 7 7 10 3 10 12 11 11 10 10 9 10 10 11 11 10 11 12 13 13 11 9 7 5 3 3 2 1 0 1 2
4 6 3 5 5 5 3 2 1 4 5 6 6 9 7 7 7 8 9 10 9 9 8 8 8 9 9 8 8 9 11 13 13 12 11 9 7 5 4 4 4 2 1 3
5 2 4 4 0 1 2 1 6 7 1 5 7 7 5 3 7 9 9 9 8 8 7 7 7 7 7 7 7 8 10 11 11 11 11 10 9 8 7 6 5 4 2 2
5 6 4 1 2 2 2 1 3 2 3 7 3 3 5 3 7 11 12 9 8 7 7 6 6 6 6 7 8 9 10 11 10 10 11 11 10 9 8 7 6 6 4 3
4 3 6 5 4 1 3 2 3 4 5 5 5 7 4 6 8 10 10 9 8 7 6 6 6 5 5 6 7 8 9 9 9 9 9 9 9 7 6 7 6 6 5 5
4 2 5 4 1 1 1 3 1 2 4 6 7 6 2 6 8 8 8 8 7 6 5 5 5 5 5 6 7 7 8 8 9 8 8 8 8 8 7 8 7 6 7 7
2 3 1 3 2 2 3 1 2 2 4 7 7 8 5 4 9 8 7 6 5 4 4 4 4 4 4 5 5 6 6 6 6 7 7 6 6 6 6 6 7 8 8 8
1 2 3 3 5 4 4 4 4 4 5 5 5 6 4 7 8 8 7 5 4 3 3 3 2 3 3 4 3 3 4 5 5 5 5 5 6 6 6 5 6 6 7 8
1 2 4 6 5 3 2 4 4 6 7 6 7 7 7 8 6 6 6 6 5 3 2 2 2 3 3 3 3 3 3 3 3 4 4 5 5 5 6 6 6 6 7 7
4 3 2 6 3 2 2 2 2 1 2 5 6 6 4 5 6 7 8 7 6 4 2 1 2 3 4 3 3 3 3 2 2 2 4 5 4 5 5 6 6 7 7 7
3 4 7 8 6 5 5 6 6 6 6 8 11 13 10 7 6 5 6 6 5 5 4 2 1 2 3 3 3 4 4 3 3 3 4 5 5 5 6 6 6 7 7 8
1 4 6 10 11 10 12 14 13 13 14 17 17 18 15 6 3 3 3 3 1 2 3 3 2 1 2 3 3 3 3 4 4 4 6 7 7 7 7 8 7 7 7 9
1 3 3 7 9 9 14 17 16 15 16 19 19 19 3 4 4 5 4 3 1 2 2 2 2 2 3 3 3 3 4 4 2 4 6 7 8 9 9 9 9 9 9 9
2 3 3 6 5 5 13 15 15 13 12 13 14 5 3 3 4 4 3 3 3 3 3 3 3 3 3 2 1 3 4 3 3 5 7 8 9 10 11 11 10 11 10 10
5 4 3 4 1 10 13 5 6 7 7 3 2 5 4 3 1 3 6 6 3 3 4 4 3 2 1 0 2 3 3 4 5 7 8 8 9 10 10 10 11 11 10 12
9 7 5 4 6 10 8 4 1 3 6 1 3 5 3 1 4 6 4 1 1 3 4 4 2 1 2 2 2 3 4 5 6 8 8 8 8 9 11 12 13 12 13 14
6 7 6 6 6 9 5 3 2 2 6 3 5 5 3 3 4 5 3 2 4 5 4 2 1 1 2 4 5 5 6 6 7 8 9 10 10 11 13 15 16 15 15 18
5 5 8 8 8 9 4 5 4 3 8 5 6 6 6 7 8 7 6 5 6 5 2 1 3 3 4 5 6 6 7 8 8 9 11 11 11 11 14 15 15 15 17 19
8 7 8 6 7 10 4 6 7 7 4 6 7 8 8 8 8 7 6 6 5 1 2 4 4 4 4 5 5 8 9 9 9 10 11 12 11 12 12 13 15 14 15 18
7 9 6 9 9 5 9 9 8 5 6 7 8 8 8 8 8 7 6 4 1 3 3 3 3 5 4 4 4 8 10 9 10 10 11 12 13 11 11 13 15 14 13 13
6 7 6 5 7 9 8 8 8 9 10 10 9 8 7 8 8 7 5 2 2 2 2 2 3 5 5 4 5 6 9 9 9 11 13 13 13 13 12 11 12 12 12 14
9 5 7 10 12 12 13 13 11 11 10 9 8 8 8 8 8 6 4 3 2 1 1 2 3 5 7 6 6 6 7 8 10 13 14 14 13 14 13 12 11 15 14 17
14 12 12 11 11 11 11 10 9 9 8 8 8 8 7 7 6 4 3 2 2 1 1 3 4 6 6 7 8 7 7 7 10 13 13 12 12 12 13 14 14 22 26 31
Wind_Direction
178 209 212 218 223 243 285 290 286 286 293 287 272 279 288 284 286 288 311 62 76 67 51 40 32 22 18 17 20 19 16 13 27 51 66 64 26 359 5 57 118 156 165 173
159 229 237 254 281 304 301 291 284 284 283 303 285 275 268 266 264 268 70 73 71 62 48 38 32 25 22 22 23 26 21 17 17 25 50 61 45 25 27 57 73 81 150 176
216 254 290 244 259 263 265 263 272 285 315 292 274 268 252 269 230 80 77 77 68 62 50 37 32 27 23 23 24 29 26 24 19 19 29 39 38 24 17 11 16 29 24 206
232 265 281 240 258 262 274 281 290 296 299 273 295 288 242 249 153 90 83 78 71 64 56 43 35 31 27 19 17 30 31 30 24 24 27 29 33 24 4 350 353 29 238 269
237 154 166 218 236 230 243 68 289 259 256 275 253 258 264 215 123 105 96 89 83 74 66 55 43 35 28 18 17 28 35 34 29 28 27 27 25 14 2 3 5 356 272 242
260 136 203 225 113 55 354 303 258 237 194 262 236 231 289 39 134 135 116 102 94 88 77 67 56 45 29 18 20 28 36 35 31 33 32 27 19 12 10 4 351 339 316 255
230 191 196 134 185 163 172 233 314 304 197 228 24 295 266 87 111 135 129 113 101 91 81 67 56 49 36 25 24 29 36 34 26 30 33 25 18 16 18 8 356 350 341 324
262 244 158 178 206 126 181 200 212 248 259 296 338 258 266 101 86 95 103 103 95 86 82 73 61 52 43 35 32 33 34 31 25 28 28 23 19 18 15 8 1 355 346 335
256 210 128 138 108 65 259 229 236 254 280 280 255 246 155 121 118 109 105 98 91 87 83 80 70 59 49 41 37 40 38 30 23 22 26 23 17 16 13 9 5 360 351 343
4 289 343 97 118 195 209 318 60 168 235 246 259 271 282 153 143 127 120 113 107 97 89 85 82 77 67 56 44 45 48 35 23 18 20 16 11 11 8 8 5 357 348 344
28 270 269 204 205 231 211 207 214 228 223 234 257 265 66 84 128 135 126 117 113 103 99 97 98 99 97 86 66 53 62 50 24 12 5 4 2 1 358 1 356 346 340 339
142 241 266 264 279 325 281 273 262 251 253 255 264 264 79 90 101 126 147 157 157 149 124 104 91 84 73 67 65 47 53 70 36 3 351 345 347 348 346 344 339 334 331 328
108 145 271 299 237 101 105 86 89 88 276 253 259 259 145 152 177 190 192 187 182 173 158 95 47 45 44 28 28 20 15 39 30 351 337 327 329 331 326 324 322 320 318 314
98 199 204 225 253 311 294 264 233 219 245 257 252 271 277 271 256 229 200 189 188 177 162 119 40 9 3 347 352 355 349 351 352 347 337 325 320 317 310 304 298 298 300 301
147 238 241 258 274 286 284 280 274 265 264 268 273 277 286 311 5 38 101 117 129 171 183 182 182 221 284 295 304 311 317 320 333 339 330 319 315 310 302 293 285 282 282 286
175 249 288 271 264 274 274 269 268 269 267 269 273 276 337 74 63 50 42 32 349 312 267 208 193 218 245 270 283 295 291 295 324 316 300 297 297 295 292 289 288 288 286 283
200 188 202 251 245 262 256 244 247 247 248 261 272 271 78 69 58 32 354 312 291 301 304 276 238 226 229 247 283 291 284 298 299 285 280 278 276 276 276 276 278 281 284 285
207 189 210 256 266 233 238 234 239 265 272 270 169 173 158 114 40 299 271 260 267 299 299 287 264 254 256 327 302 296 301 298 287 281 278 276 276 278 281 281 281 284 285 286
215 194 203 214 232 259 262 259 332 278 275 262 151 154 144 350 311 284 278 92 335 295 285 277 272 303 351 348 356 357 321 303 293 289 289 294 302 305 305 301 298 298 295 290
197 204 209 213 224 238 241 124 91 31 273 193 147 164 220 282 282 270 300 320 293 279 272 274 304 360 9 26 27 351 318 309 301 305 315 322 324 319 313 308 306 304 300 294
174 195 214 226 236 252 233 139 115 202 249 177 165 193 223 239 240 256 270 264 260 258 259 41 34 29 33 31 10 330 313 307 315 326 323 319 318 314 306 302 299 298 295 292
180 195 204 195 215 249 166 146 192 221 160 184 204 223 240 253 261 265 263 260 257 242 69 55 32 2 9 18 353 316 308 317 326 323 316 311 306 301 298 293 293 291 290 289
212 209 195 192 208 226 175 193 216 223 220 228 236 250 252 259 261 259 258 254 162 100 78 53 11 326 332 351 336 310 313 322 320 315 308 303 299 294 291 289 291 290 286 285
234 218 220 241 246 254 248 239 238 239 243 247 246 249 248 251 254 255 251 193 145 108 78 35 345 314 309 322 320 307 314 319 314 307 306 304 303 299 293 288 288 288 286 284
228 221 220 232 241 252 255 253 253 256 254 251 248 244 243 245 246 244 220 183 164 121 63 5 317 301 302 313 311 311 312 311 307 306 305 305 301 298 296 291 285 286 278 277
234 232 233 237 236 238 246 243 235 238 245 249 251 251 236 220 228 210 188 156 121 67 3 317 297 293 300 307 305 305 302 300 303 307 307 305 302 300 297 296 293 289 290 291